| time (UTC) | temp F | wind direction | speed MPH | gust MPH | rain 1hr in | rain 24hr in | rain mn in | humidity % | barometer mb |
| 20260507060128 | 53 | 210 | 2.0 | 6.0 | 0.01 | 0.08 | 0.01 | 94 | 1013.4 |
| 20260507054129 | 53 | 181 | 4.0 | 9.0 | 0.01 | 0.08 | 0.01 | 95 | 1013.8 |
| 20260507052028 | 53 | 205 | 4.0 | 9.0 | 0.00 | 0.07 | 0.00 | 94 | 1014.0 |
| 20260507051031 | 53 | 202 | 5.0 | 10.0 | 0.00 | 0.07 | 0.00 | 95 | 1014.1 |
| 20260507050032 | 53 | 212 | 5.0 | 8.0 | 0.00 | 0.07 | 0.00 | 95 | 1014.4 |
| 20260507045128 | 53 | 228 | 2.0 | 5.0 | 0.00 | 0.07 | 0.00 | 94 | 1014.3 |
| 20260507045028 | 53 | 202 | 5.0 | 11.0 | 0.00 | 0.07 | 0.00 | 95 | 1014.2 |
| 20260507044030 | 53 | 205 | 4.0 | 8.0 | 0.00 | 0.07 | 0.00 | 93 | 1014.3 |
| 20260507043930 | 53 | 214 | 4.0 | 9.0 | 0.00 | 0.07 | 0.00 | 93 | 1014.2 |
| 20260507043831 | 53 | 227 | 2.0 | 6.0 | 0.00 | 0.07 | 0.00 | 94 | 1014.1 |
| 20260507042930 | 53 | 226 | 4.0 | 8.0 | 0.00 | 0.07 | 0.00 | 93 | 1014.4 |
| 20260507042830 | 53 | 200 | 3.0 | 7.0 | 0.00 | 0.07 | 0.00 | 94 | 1014.4 |
| 20260507041929 | 53 | 196 | 3.0 | 8.0 | 0.00 | 0.07 | 0.00 | 94 | 1014.3 |
| 20260507040027 | 53 | 210 | 4.0 | 14.0 | 0.00 | 0.07 | 0.00 | 93 | 1014.7 |
| 20260507035020 | 53 | 214 | 4.0 | 8.0 | 0.00 | 0.07 | 0.07 | 94 | 1014.4 |
| 20260507034023 | 53 | 234 | 6.0 | 11.0 | 0.00 | 0.07 | 0.07 | 94 | 1014.7 |
| 20260507033924 | 53 | 209 | 4.0 | 11.0 | 0.00 | 0.07 | 0.07 | 94 | 1014.7 |
| 20260507032922 | 54 | 211 | 6.0 | 14.0 | 0.00 | 0.07 | 0.07 | 94 | 1014.8 |
| 20260507031923 | 54 | 200 | 6.0 | 11.0 | 0.00 | 0.07 | 0.07 | 93 | 1014.4 |
| 20260507031823 | 54 | 212 | 3.0 | 11.0 | 0.00 | 0.07 | 0.07 | 94 | 1014.3 |
| 20260507030822 | 54 | 184 | 4.0 | 9.0 | 0.00 | 0.07 | 0.07 | 94 | 1014.5 |
| 20260507025921 | 54 | 215 | 3.0 | 7.0 | 0.00 | 0.07 | 0.07 | 94 | 1014.4 |
| 20260507023923 | 54 | 188 | 6.0 | 11.0 | 0.00 | 0.07 | 0.07 | 92 | 1014.6 |
| 20260507023820 | 54 | 186 | 5.0 | 9.0 | 0.00 | 0.07 | 0.07 | 92 | 1014.6 |
| 20260507022824 | 54 | 196 | 5.0 | 8.0 | 0.00 | 0.07 | 0.07 | 92 | 1014.9 |
| 20260507021920 | 54 | 190 | 5.0 | 11.0 | 0.00 | 0.07 | 0.07 | 93 | 1014.7 |
| 20260507020921 | 54 | 188 | 5.0 | 9.0 | 0.00 | 0.07 | 0.07 | 93 | 1015.0 |
| 20260507020823 | 54 | 202 | 4.0 | 8.0 | 0.00 | 0.07 | 0.07 | 92 | 1015.1 |
| 20260507015822 | 54 | 221 | 4.0 | 10.0 | 0.00 | 0.07 | 0.07 | 93 | 1015.2 |
| 20260507014920 | 54 | 215 | 5.0 | 12.0 | 0.00 | 0.07 | 0.07 | 93 | 1015.2 |
| 20260507014822 | 54 | 205 | 3.0 | 7.0 | 0.00 | 0.07 | 0.07 | 93 | 1015.2 |
| 20260507013820 | 55 | 223 | 6.0 | 11.0 | 0.00 | 0.07 | 0.07 | 93 | 1015.5 |
| 20260507012821 | 55 | 229 | 5.0 | 9.0 | 0.00 | 0.07 | 0.07 | 92 | 1015.6 |
| 20260507012723 | 55 | 236 | 4.0 | 9.0 | 0.00 | 0.07 | 0.07 | 93 | 1015.6 |
| 20260507011821 | 55 | 206 | 5.0 | 11.0 | 0.00 | 0.07 | 0.07 | 92 | 1015.5 |
| 20260507005920 | 56 | 218 | 7.0 | 13.0 | 0.00 | 0.07 | 0.07 | 93 | 1015.4 |
| 20260507004921 | 56 | 216 | 7.0 | 11.0 | 0.01 | 0.07 | 0.07 | 93 | 1015.3 |
| 20260507004821 | 56 | 213 | 6.0 | 10.0 | 0.01 | 0.07 | 0.07 | 93 | 1015.4 |
| 20260507003824 | 56 | 195 | 5.0 | 14.0 | 0.01 | 0.07 | 0.07 | 93 | 1015.3 |
| 20260507002823 | 56 | 190 | 7.0 | 10.0 | 0.03 | 0.07 | 0.07 | 93 | 1015.1 |
| 20260507002724 | 56 | 186 | 3.0 | 9.0 | 0.03 | 0.07 | 0.07 | 93 | 1015.1 |
| 20260507001820 | 56 | 194 | 7.0 | 14.0 | 0.04 | 0.07 | 0.07 | 93 | 1015.3 |
| 20260507001721 | 56 | 175 | 9.0 | 17.0 | 0.04 | 0.07 | 0.07 | 93 | 1015.3 |
| 20260507000820 | 56 | 203 | 6.0 | 17.0 | 0.05 | 0.07 | 0.07 | 93 | 1015.2 |
| 20260507000722 | 56 | 185 | 10.0 | 14.0 | 0.05 | 0.07 | 0.07 | 93 | 1015.2 |
| 20260506234721 | 56 | 186 | 9.0 | 19.0 | 0.05 | 0.06 | 0.06 | 93 | 1015.0 |
| 20260506234620 | 56 | 182 | 10.0 | 18.0 | 0.05 | 0.06 | 0.06 | 93 | 1015.0 |
| 20260506232621 | 56 | 173 | 11.0 | 20.0 | 0.04 | 0.04 | 0.04 | 92 | 1014.8 |
| 20260506232522 | 56 | 175 | 10.0 | 18.0 | 0.04 | 0.04 | 0.04 | 92 | 1014.8 |
| 20260506231523 | 56 | 174 | 11.0 | 18.0 | 0.03 | 0.03 | 0.03 | 91 | 1015.1 |
| 20260506231421 | 56 | 166 | 10.0 | 17.0 | 0.03 | 0.03 | 0.03 | 90 | 1015.2 |
| 20260506230520 | 56 | 166 | 10.0 | 17.0 | 0.02 | 0.02 | 0.02 | 91 | 1015.4 |
| 20260506230321 | 56 | 173 | 11.0 | 18.0 | 0.02 | 0.02 | 0.02 | 90 | 1015.3 |
| 20260506225321 | 56 | 176 | 9.0 | 15.0 | 0.01 | 0.01 | 0.01 | 89 | 1015.4 |
| 20260506224322 | 56 | 171 | 10.0 | 15.0 | 0.00 | 0.00 | 0.00 | 88 | 1015.6 |
| 20260506223421 | 57 | 185 | 11.0 | 18.0 | 0.00 | 0.00 | 0.00 | 86 | 1015.6 |
| 20260506223322 | 57 | 193 | 6.0 | 11.0 | 0.00 | 0.00 | 0.00 | 86 | 1015.6 |
| 20260506222322 | 57 | 196 | 10.0 | 15.0 | 0.00 | 0.00 | 0.00 | 84 | 1015.8 |
| 20260506222223 | 57 | 188 | 13.0 | 24.0 | 0.00 | 0.00 | 0.00 | 84 | 1015.7 |
| 20260506220223 | 58 | 192 | 11.0 | 19.0 | 0.00 | 0.00 | 0.00 | 81 | 1015.4 |
| 20260506215320 | 59 | 179 | 12.0 | 17.0 | 0.00 | 0.00 | 0.00 | 81 | 1015.5 |
| 20260506215223 | 59 | 176 | 8.0 | 16.0 | 0.00 | 0.00 | 0.00 | 81 | 1015.5 |
| 20260506214221 | 58 | 175 | 8.0 | 16.0 | 0.00 | 0.00 | 0.00 | 81 | 1015.6 |
| 20260506214120 | 58 | 171 | 10.0 | 15.0 | 0.00 | 0.00 | 0.00 | 81 | 1015.6 |
| 20260506214020 | 58 | 171 | 10.0 | 20.0 | 0.00 | 0.00 | 0.00 | 81 | 1015.6 |
| 20260506213022 | 58 | 177 | 12.0 | 21.0 | 0.00 | 0.00 | 0.00 | 81 | 1015.7 |
| 20260506212922 | 58 | 168 | 10.0 | 21.0 | 0.00 | 0.00 | 0.00 | 81 | 1015.7 |
| 20260506211922 | 59 | 184 | 11.0 | 17.0 | 0.00 | 0.00 | 0.00 | 79 | 1016.1 |
| 20260506211820 | 59 | 167 | 8.0 | 18.0 | 0.00 | 0.00 | 0.00 | 79 | 1016.1 |
| 20260506211724 | 59 | 177 | 10.0 | 18.0 | 0.00 | 0.00 | 0.00 | 80 | 1016.0 |
| 20260506210723 | 59 | 188 | 10.0 | 16.0 | 0.00 | 0.00 | 0.00 | 80 | 1015.9 |
| 20260506205821 | 59 | 175 | 9.0 | 17.0 | 0.00 | 0.00 | 0.00 | 79 | 1016.0 |
| 20260506204824 | 59 | 183 | 12.0 | 20.0 | 0.00 | 0.00 | 0.00 | 79 | 1016.0 |
| 20260506203922 | 59 | 175 | 11.0 | 21.0 | 0.00 | 0.00 | 0.00 | 80 | 1016.0 |
| 20260506203821 | 59 | 178 | 7.0 | 16.0 | 0.00 | 0.00 | 0.00 | 80 | 1016.1 |
| 20260506202821 | 59 | 180 | 11.0 | 17.0 | 0.00 | 0.00 | 0.00 | 78 | 1016.4 |
| 20260506200823 | 59 | 177 | 8.0 | 15.0 | 0.00 | 0.00 | 0.00 | 79 | 1016.4 |
| 20260506195920 | 59 | 190 | 7.0 | 14.0 | 0.00 | 0.00 | 0.00 | 78 | 1016.5 |
| 20260506194921 | 59 | 173 | 11.0 | 18.0 | 0.00 | 0.00 | 0.00 | 78 | 1016.6 |
| 20260506193924 | 59 | 189 | 9.0 | 20.0 | 0.00 | 0.00 | 0.00 | 78 | 1016.9 |
| 20260506192920 | 59 | 168 | 10.0 | 21.0 | 0.00 | 0.00 | 0.00 | 78 | 1016.9 |
| 20260506191823 | 59 | 176 | 11.0 | 17.0 | 0.00 | 0.00 | 0.00 | 77 | 1016.9 |
| 20260506190820 | 60 | 173 | 13.0 | 20.0 | 0.00 | 0.00 | 0.00 | 76 | 1017.0 |
| 20260506185823 | 59 | 182 | 8.0 | 15.0 | 0.00 | 0.00 | 0.00 | 77 | 1016.9 |
| 20260506185723 | 59 | 182 | 8.0 | 14.0 | 0.00 | 0.00 | 0.00 | 77 | 1017.0 |
| 20260506183823 | 59 | 171 | 13.0 | 20.0 | 0.00 | 0.00 | 0.00 | 77 | 1017.3 |
| 20260506182821 | 59 | 169 | 9.0 | 17.0 | 0.00 | 0.00 | 0.00 | 76 | 1017.5 |
| 20260506182721 | 60 | 187 | 13.0 | 23.0 | 0.00 | 0.00 | 0.00 | 76 | 1017.5 |
| 20260506182622 | 60 | 187 | 10.0 | 18.0 | 0.00 | 0.00 | 0.00 | 76 | 1017.5 |
| 20260506181620 | 60 | 178 | 10.0 | 21.0 | 0.00 | 0.00 | 0.00 | 74 | 1017.9 |
| 20260506181523 | 60 | 180 | 13.0 | 21.0 | 0.00 | 0.00 | 0.00 | 75 | 1017.8 |
| 20260506180521 | 61 | 182 | 9.0 | 18.0 | 0.00 | 0.00 | 0.00 | 74 | 1017.9 |
| 20260506175522 | 62 | 195 | 7.0 | 11.0 | 0.00 | 0.00 | 0.00 | 74 | 1018.2 |
| 20260506174522 | 62 | 178 | 12.0 | 20.0 | 0.00 | 0.00 | 0.00 | 73 | 1018.3 |
| 20260506174422 | 62 | 192 | 12.0 | 22.0 | 0.00 | 0.00 | 0.00 | 72 | 1018.3 |
| 20260506173422 | 62 | 176 | 12.0 | 23.0 | 0.00 | 0.00 | 0.00 | 74 | 1018.1 |
| 20260506171523 | 61 | 185 | 10.0 | 21.0 | 0.00 | 0.00 | 0.00 | 75 | 1018.2 |
| 20260506171420 | 61 | 185 | 10.0 | 18.0 | 0.00 | 0.00 | 0.00 | 75 | 1018.3 |
| 20260506170423 | 61 | 190 | 9.0 | 14.0 | 0.00 | 0.00 | 0.00 | 74 | 1018.5 |
| 20260506165421 | 61 | 172 | 13.0 | 18.0 | 0.00 | 0.00 | 0.00 | 75 | 1018.7 |
| 20260506164420 | 61 | 178 | 10.0 | 22.0 | 0.00 | 0.00 | 0.00 | 74 | 1018.8 |
| 20260506163422 | 62 | 208 | 10.0 | 17.0 | 0.00 | 0.00 | 0.00 | 73 | 1019.0 |
| 20260506162423 | 62 | 216 | 2.0 | 6.0 | 0.00 | 0.00 | 0.00 | 73 | 1019.3 |
| 20260506162321 | 63 | 212 | 3.0 | 6.0 | 0.00 | 0.00 | 0.00 | 73 | 1019.3 |
| 20260506161320 | 62 | 192 | 5.0 | 8.0 | 0.00 | 0.00 | 0.00 | 73 | 1019.3 |
| 20260506160322 | 62 | 192 | 8.0 | 14.0 | 0.00 | 0.00 | 0.00 | 73 | 1019.4 |
| 20260506155321 | 62 | 198 | 7.0 | 11.0 | 0.00 | 0.00 | 0.00 | 73 | 1019.5 |
| 20260506154421 | 62 | 199 | 9.0 | 15.0 | 0.00 | 0.00 | 0.00 | 73 | 1019.7 |
| 20260506153419 | 61 | 195 | 10.0 | 17.0 | 0.00 | 0.00 | 0.00 | 74 | 1019.8 |
| 20260506153323 | 61 | 191 | 9.0 | 21.0 | 0.00 | 0.00 | 0.00 | 75 | 1019.7 |
| 20260506152420 | 61 | 181 | 6.0 | 12.0 | 0.00 | 0.00 | 0.00 | 73 | 1019.9 |
| 20260506150422 | 60 | 191 | 6.0 | 9.0 | 0.00 | 0.00 | 0.00 | 76 | 1020.0 |
| 20260506145422 | 60 | 231 | 11.0 | 17.0 | 0.00 | 0.00 | 0.00 | 76 | 1020.0 |
| 20260506144422 | 60 | 214 | 5.0 | 8.0 | 0.00 | 0.00 | 0.00 | 76 | 1020.0 |
| 20260506143421 | 60 | 186 | 4.0 | 7.0 | 0.00 | 0.00 | 0.00 | 76 | 1019.8 |
| 20260506142423 | 60 | 175 | 7.0 | 13.0 | 0.00 | 0.00 | 0.00 | 76 | 1019.6 |
| 20260506141420 | 60 | 192 | 6.0 | 15.0 | 0.00 | 0.00 | 0.00 | 75 | 1019.9 |
| 20260506140323 | 61 | 211 | 4.0 | 12.0 | 0.00 | 0.00 | 0.00 | 75 | 1020.1 |
| 20260506135323 | 61 | 211 | 7.0 | 14.0 | 0.00 | 0.00 | 0.00 | 75 | 1020.0 |
| 20260506134320 | 61 | 206 | 5.0 | 9.0 | 0.00 | 0.00 | 0.00 | 75 | 1019.9 |
| 20260506133322 | 61 | 183 | 8.0 | 14.0 | 0.00 | 0.00 | 0.00 | 75 | 1020.0 |
| 20260506132421 | 61 | 190 | 6.0 | 12.0 | 0.00 | 0.00 | 0.00 | 74 | 1019.9 |
| 20260506132322 | 61 | 210 | 8.0 | 13.0 | 0.00 | 0.00 | 0.00 | 74 | 1019.8 |
| 20260506130321 | 59 | 183 | 4.0 | 8.0 | 0.00 | 0.00 | 0.00 | 78 | 1020.0 |
| 20260506125421 | 59 | 232 | 3.0 | 7.0 | 0.00 | 0.00 | 0.00 | 78 | 1020.1 |
| 20260506124323 | 59 | 199 | 3.0 | 7.0 | 0.00 | 0.00 | 0.00 | 78 | 1020.1 |
| 20260506122323 | 58 | 184 | 4.0 | 8.0 | 0.00 | 0.00 | 0.00 | 81 | 1020.1 |
| 20260506121419 | 57 | 184 | 7.0 | 10.0 | 0.00 | 0.00 | 0.00 | 82 | 1020.1 |
| 20260506121321 | 57 | 189 | 4.0 | 9.0 | 0.00 | 0.00 | 0.00 | 82 | 1020.2 |
| 20260506120322 | 56 | 204 | 6.0 | 10.0 | 0.00 | 0.00 | 0.00 | 83 | 1020.4 |
| 20260506120220 | 56 | 199 | 5.0 | 9.0 | 0.00 | 0.00 | 0.00 | 83 | 1020.4 |
| 20260506115223 | 56 | 191 | 7.0 | 14.0 | 0.00 | 0.00 | 0.00 | 85 | 1020.4 |
| 20260506113319 | 56 | 189 | 6.0 | 11.0 | 0.00 | 0.00 | 0.00 | 83 | 1020.3 |
| 20260506113220 | 56 | 194 | 8.0 | 14.0 | 0.00 | 0.00 | 0.00 | 84 | 1020.3 |
| 20260506112238 | 57 | 191 | 8.0 | 15.0 | 0.00 | 0.00 | 0.00 | 84 | 1020.2 |
| 20260506111320 | 56 | 181 | 9.0 | 18.0 | 0.00 | 0.00 | 0.00 | 84 | 1020.3 |
| 20260506110222 | 56 | 189 | 5.0 | 10.0 | 0.00 | 0.00 | 0.00 | 85 | 1020.3 |
| 20260506105221 | 55 | 183 | 6.0 | 12.0 | 0.00 | 0.00 | 0.00 | 87 | 1020.3 |
| 20260506103320 | 55 | 196 | 6.0 | 12.0 | 0.00 | 0.00 | 0.00 | 89 | 1020.2 |
| 20260506102321 | 54 | 169 | 7.0 | 13.0 | 0.00 | 0.00 | 0.00 | 90 | 1020.2 |
| 20260506101419 | 54 | 194 | 4.0 | 7.0 | 0.00 | 0.00 | 0.00 | 90 | 1020.0 |
| 20260506100423 | 54 | 174 | 8.0 | 12.0 | 0.00 | 0.00 | 0.00 | 91 | 1020.1 |
| 20260506100321 | 54 | 177 | 8.0 | 14.0 | 0.00 | 0.00 | 0.00 | 90 | 1020.1 |
| 20260506095320 | 54 | 180 | 6.0 | 11.0 | 0.00 | 0.00 | 0.00 | 90 | 1020.1 |
| 20260506094324 | 54 | 168 | 4.0 | 9.0 | 0.00 | 0.00 | 0.00 | 91 | 1020.1 |
| 20260506094221 | 54 | 185 | 6.0 | 13.0 | 0.00 | 0.00 | 0.00 | 91 | 1020.2 |
| 20260506093321 | 54 | 174 | 7.0 | 9.0 | 0.00 | 0.00 | 0.00 | 91 | 1020.1 |
| 20260506093220 | 54 | 181 | 8.0 | 12.0 | 0.00 | 0.00 | 0.00 | 90 | 1020.2 |
| 20260506092319 | 54 | 179 | 6.0 | 11.0 | 0.00 | 0.00 | 0.00 | 91 | 1020.3 |
| 20260506092221 | 54 | 191 | 6.0 | 9.0 | 0.00 | 0.00 | 0.00 | 90 | 1020.3 |
| 20260506091319 | 54 | 183 | 4.0 | 7.0 | 0.00 | 0.00 | 0.00 | 90 | 1020.4 |
| 20260506085321 | 54 | 176 | 7.0 | 10.0 | 0.00 | 0.00 | 0.00 | 91 | 1020.2 |
| 20260506084319 | 54 | 183 | 4.0 | 9.0 | 0.00 | 0.00 | 0.00 | 90 | 1020.3 |
| 20260506083320 | 54 | 197 | 5.0 | 8.0 | 0.00 | 0.00 | 0.00 | 91 | 1020.4 |
| 20260506083220 | 54 | 182 | 5.0 | 8.0 | 0.00 | 0.00 | 0.00 | 90 | 1020.3 |
| 20260506083119 | 54 | 199 | 2.0 | 4.0 | 0.00 | 0.00 | 0.00 | 90 | 1020.3 |
| 20260506082122 | 54 | 179 | 2.0 | 6.0 | 0.00 | 0.00 | 0.00 | 90 | 1020.4 |
| 20260506082019 | 54 | 184 | 3.0 | 7.0 | 0.00 | 0.00 | 0.00 | 91 | 1020.5 |
| 20260506081022 | 54 | 203 | 3.0 | 6.0 | 0.00 | 0.00 | 0.00 | 91 | 1020.4 |
| 20260506073021 | 54 | 183 | 5.0 | 8.0 | 0.00 | 0.00 | 0.00 | 90 | 1020.3 |
| 20260506072019 | 54 | 185 | 4.0 | 11.0 | 0.00 | 0.00 | 0.00 | 91 | 1020.2 |
| 20260506071924 | 54 | 190 | 7.0 | 13.0 | 0.00 | 0.00 | 0.00 | 91 | 1020.2 |
| 20260506071021 | 54 | 177 | 5.0 | 11.0 | 0.00 | 0.00 | 0.00 | 91 | 1020.2 |
| 20260506061919 | 53 | 177 | 4.0 | 8.0 | 0.00 | 0.00 | 0.00 | 90 | 1020.2 |
| 20260506060922 | 53 | 186 | 7.0 | 12.0 | 0.00 | 0.00 | 0.00 | 90 | 1020.3 |